FLI437 GCTS-EKVG

Flight info

Callsign FLI437
Flight time N/A
Altitude 34000
Route BIMBO Q206 SNT T16 IDREL T13 RUPEP/N0445F360 T13 MANOX/M077F360 T13 NILAV/M077F370 T13 OMOKO/N0449F370 DCT UNLID DCT UNBEG/N0432F360 DCT LUTOV/N0433F370 DCT GOMUP DCT NINEX DCT MATIK DCT SUDUR
Aircraft A320/M-SDE3FGHIRWY/LB1

Departure

Time 2026-04-30 12:30
Airport Tenerife Sur Airport (GCTS)

Arrival

Time N/A
Airport Vágar Airport (EKVG)
Time Latitude Longitude Altitude Speed Heading
2026-04-30 12:08 28.04649 -16.57842 226 ft 0 kts 338°
2026-04-30 12:19 28.04648 -16.57842 225 ft 0 kts 338°
2026-04-30 12:22 28.04641 -16.57839 225 ft 4 kts 336°
2026-04-30 12:22 28.04618 -16.57824 226 ft 4 kts 320°
2026-04-30 12:23 28.04600 -16.57802 227 ft 4 kts 301°
2026-04-30 12:23 28.04590 -16.57776 224 ft 4 kts 268°
2026-04-30 12:23 28.04592 -16.57763 226 ft 1 kts 249°
2026-04-30 12:25 28.04590 -16.57769 224 ft 4 kts 249°
2026-04-30 12:25 28.04563 -16.57846 227 ft 14 kts 248°
2026-04-30 12:25 28.04540 -16.57925 224 ft 9 kts 249°
2026-04-30 12:26 28.04511 -16.58009 224 ft 14 kts 248°
2026-04-30 12:26 28.04482 -16.58089 224 ft 12 kts 250°
2026-04-30 12:26 28.04444 -16.58200 224 ft 18 kts 248°
2026-04-30 12:26 28.04397 -16.58332 224 ft 19 kts 248°
2026-04-30 12:27 28.04354 -16.58456 224 ft 18 kts 249°
2026-04-30 12:27 28.04310 -16.58562 225 ft 15 kts 223°
2026-04-30 12:27 28.04208 -16.58547 222 ft 15 kts 179°
2026-04-30 12:27 28.04148 -16.58660 218 ft 19 kts 248°
2026-04-30 12:28 28.04098 -16.58778 214 ft 15 kts 214°
2026-04-30 12:28 28.04009 -16.58742 205 ft 18 kts 106°
2026-04-30 12:28 28.03994 -16.58605 196 ft 15 kts 90°
2026-04-30 12:28 28.04014 -16.58492 197 ft 15 kts 69°
2026-04-30 12:29 28.04023 -16.58464 200 ft 0 kts 69°
2026-04-30 12:29 28.04026 -16.58457 202 ft 6 kts 69°
2026-04-30 12:29 28.04054 -16.58375 198 ft 41 kts 69°
2026-04-30 12:29 28.04136 -16.58141 198 ft 76 kts 68°
2026-04-30 12:30 28.04407 -16.57364 204 ft 134 kts 69°
2026-04-30 12:30 28.04802 -16.56230 364 ft 162 kts 69°
2026-04-30 12:30 28.05212 -16.55049 1007 ft 162 kts 67°
2026-04-30 12:30 28.05641 -16.53843 1525 ft 172 kts 67°
2026-04-30 12:31 28.06112 -16.52507 1779 ft 192 kts 67°
2026-04-30 12:31 28.06631 -16.51052 2079 ft 211 kts 66°
2026-04-30 12:31 28.07224 -16.49401 2266 ft 238 kts 65°
2026-04-30 12:31 28.07913 -16.47587 2567 ft 261 kts 68°
2026-04-30 12:32 28.08579 -16.45696 3379 ft 262 kts 69°
2026-04-30 12:32 28.09221 -16.43742 4155 ft 266 kts 70°
2026-04-30 12:32 28.09839 -16.41753 4910 ft 270 kts 71°
2026-04-30 12:32 28.10463 -16.39721 5635 ft 274 kts 71°
2026-04-30 12:33 28.11100 -16.37662 6340 ft 279 kts 70°
2026-04-30 12:33 28.11753 -16.35585 6984 ft 285 kts 70°
2026-04-30 12:33 28.12434 -16.33453 7686 ft 288 kts 69°
2026-04-30 12:33 28.13124 -16.31322 8353 ft 293 kts 69°
2026-04-30 12:34 28.13833 -16.29134 9007 ft 298 kts 69°
2026-04-30 12:34 28.14552 -16.26910 9661 ft 303 kts 69°
2026-04-30 12:34 28.15276 -16.24665 10267 ft 309 kts 69°
2026-04-30 12:34 28.16043 -16.22281 10425 ft 332 kts 69°
2026-04-30 12:35 28.16863 -16.19737 10562 ft 353 kts 69°
2026-04-30 12:35 28.17722 -16.17076 11015 ft 362 kts 69°
2026-04-30 12:35 28.18587 -16.14379 11591 ft 367 kts 69°
2026-04-30 12:35 28.19464 -16.11648 12186 ft 371 kts 69°
2026-04-30 12:36 28.20408 -16.08902 12764 ft 375 kts 61°
2026-04-30 12:36 28.21866 -16.06492 13321 ft 375 kts 44°
2026-04-30 12:36 28.23897 -16.04636 13888 ft 372 kts 26°
2026-04-30 12:36 28.26251 -16.03546 14384 ft 369 kts
2026-04-30 12:37 28.28794 -16.03251 14896 ft 365 kts 353°
2026-04-30 12:37 28.31315 -16.03567 15445 ft 365 kts 349°
2026-04-30 12:37 28.33848 -16.03928 15972 ft 367 kts 348°
2026-04-30 12:37 28.36407 -16.04293 16511 ft 370 kts 348°
2026-04-30 12:38 28.38968 -16.04657 17049 ft 372 kts 348°
2026-04-30 12:38 28.41519 -16.05020 17575 ft 374 kts 348°
2026-04-30 12:38 28.44110 -16.05390 18105 ft 377 kts 348°
2026-04-30 12:38 28.46730 -16.05764 18609 ft 379 kts 348°
2026-04-30 12:39 28.49374 -16.06140 19070 ft 382 kts 348°
2026-04-30 12:39 28.52018 -16.06514 19534 ft 384 kts 348°
2026-04-30 12:39 28.54656 -16.06884 19968 ft 387 kts 348°
2026-04-30 12:39 28.57342 -16.07260 20123 ft 387 kts 348°
2026-04-30 12:40 28.59988 -16.07636 20143 ft 387 kts 348°
2026-04-30 12:40 28.62662 -16.08017 20140 ft 387 kts 347°
2026-04-30 12:40 28.65331 -16.08398 20138 ft 386 kts 347°
2026-04-30 12:40 28.68005 -16.08780 20136 ft 386 kts 347°
2026-04-30 12:41 28.70673 -16.09162 20132 ft 386 kts 347°
2026-04-30 12:41 28.73335 -16.09544 20132 ft 386 kts 347°
2026-04-30 12:41 28.76006 -16.09924 20129 ft 386 kts 348°
2026-04-30 12:41 28.78680 -16.10303 20128 ft 386 kts 348°
2026-04-30 12:42 28.81345 -16.10682 20126 ft 386 kts 348°
2026-04-30 12:42 28.84013 -16.11062 20125 ft 386 kts 348°
2026-04-30 12:42 28.86692 -16.11445 20128 ft 387 kts 347°
2026-04-30 12:42 28.89367 -16.11828 20125 ft 387 kts 347°
2026-04-30 12:43 28.92010 -16.12207 20123 ft 387 kts 348°
2026-04-30 12:43 28.94715 -16.12360 20124 ft 393 kts 358°
2026-04-30 12:43 28.97459 -16.11919 20125 ft 400 kts
2026-04-30 12:43 29.00150 -16.11023 20126 ft 402 kts 11°
2026-04-30 12:44 29.02838 -16.10096 20267 ft 405 kts 11°
2026-04-30 12:44 29.05511 -16.09173 20749 ft 407 kts 11°
2026-04-30 12:44 29.08234 -16.08236 21237 ft 409 kts 11°
2026-04-30 12:44 29.10969 -16.07295 21688 ft 412 kts 11°
2026-04-30 12:45 29.13723 -16.06350 22146 ft 414 kts 11°
2026-04-30 12:45 29.16503 -16.05393 22572 ft 417 kts 11°
2026-04-30 12:45 29.19288 -16.04433 22993 ft 419 kts 11°
2026-04-30 12:45 29.22094 -16.03467 23412 ft 422 kts 11°
2026-04-30 12:46 29.24889 -16.02505 23795 ft 424 kts 11°
2026-04-30 12:46 29.27726 -16.01527 24126 ft 426 kts 11°
2026-04-30 12:46 29.30579 -16.00543 24460 ft 428 kts 11°
2026-04-30 12:46 29.33441 -15.99556 24795 ft 429 kts 11°
2026-04-30 12:47 29.36307 -15.98566 25156 ft 430 kts 10°
2026-04-30 12:47 29.39145 -15.97583 25492 ft 431 kts 10°
2026-04-30 12:47 29.42027 -15.96584 25814 ft 432 kts 10°
2026-04-30 12:47 29.44908 -15.95589 26147 ft 433 kts 10°
2026-04-30 12:48 29.47815 -15.94584 26449 ft 435 kts 10°
2026-04-30 12:48 29.50688 -15.93587 26745 ft 437 kts 10°
2026-04-30 12:48 29.53607 -15.92576 27042 ft 438 kts 10°
2026-04-30 12:48 29.56537 -15.91562 27336 ft 440 kts
2026-04-30 12:49 29.59485 -15.90541 27625 ft 441 kts
2026-04-30 12:49 29.62403 -15.89528 27903 ft 443 kts
2026-04-30 12:49 29.65366 -15.88493 28179 ft 444 kts
2026-04-30 12:49 29.68330 -15.87459 28450 ft 445 kts
2026-04-30 12:50 29.71317 -15.86415 28716 ft 447 kts
2026-04-30 12:50 29.74266 -15.85383 28968 ft 448 kts
2026-04-30 12:50 29.77277 -15.84331 29220 ft 449 kts
2026-04-30 12:50 29.80260 -15.83291 29462 ft 451 kts
2026-04-30 12:51 29.83275 -15.82240 29697 ft 452 kts
2026-04-30 12:51 29.86299 -15.81185 29926 ft 453 kts
2026-04-30 12:51 29.89288 -15.80141 30142 ft 454 kts
2026-04-30 12:51 29.92334 -15.79081 30328 ft 456 kts
2026-04-30 12:52 29.95379 -15.78056 30568 ft 452 kts
2026-04-30 12:52 29.98416 -15.77477 30813 ft 442 kts 356°
2026-04-30 12:52 30.01482 -15.77453 31063 ft 432 kts 347°
2026-04-30 12:52 30.04447 -15.77915 31277 ft 427 kts 343°
2026-04-30 12:53 30.07388 -15.78456 31512 ft 427 kts 343°
2026-04-30 12:53 30.10319 -15.78992 31759 ft 426 kts 343°
2026-04-30 12:53 30.13229 -15.79522 32010 ft 425 kts 343°
2026-04-30 12:53 30.16149 -15.80052 32271 ft 424 kts 343°
2026-04-30 12:54 30.19073 -15.80582 32517 ft 424 kts 343°
2026-04-30 12:54 30.21984 -15.81113 32764 ft 423 kts 343°
2026-04-30 12:54 30.24873 -15.81641 33010 ft 422 kts 343°
2026-04-30 12:54 30.27772 -15.82170 33276 ft 421 kts 343°
2026-04-30 12:55 30.29695 -15.82520 33467 ft 420 kts 343°
2026-04-30 12:55 30.32577 -15.83041 33745 ft 418 kts 343°
2026-04-30 12:55 30.35454 -15.83559 34004 ft 417 kts 343°
2026-04-30 12:55 30.38321 -15.84080 34117 ft 416 kts 343°
2026-04-30 12:56 30.44056 -15.85133 34136 ft 415 kts 343°
2026-04-30 12:56 30.49736 -15.86184 34135 ft 415 kts 342°
2026-04-30 12:57 30.55423 -15.87230 34151 ft 415 kts 343°
2026-04-30 12:57 30.61136 -15.88274 34136 ft 415 kts 343°
2026-04-30 12:58 30.66836 -15.89321 34136 ft 415 kts 343°
2026-04-30 12:58 30.72558 -15.90379 34136 ft 415 kts 343°
2026-04-30 12:59 30.78250 -15.91424 34136 ft 414 kts 343°
2026-04-30 12:59 30.83954 -15.92476 34133 ft 414 kts 343°
2026-04-30 13:00 30.89635 -15.93529 34137 ft 415 kts 342°
2026-04-30 13:00 30.95345 -15.94588 34137 ft 415 kts 343°
2026-04-30 13:01 31.01057 -15.95643 34133 ft 415 kts 343°
2026-04-30 13:01 31.06755 -15.96699 34133 ft 415 kts 343°
2026-04-30 13:02 31.12464 -15.97759 34133 ft 415 kts 343°
2026-04-30 13:02 31.18153 -15.98814 34130 ft 415 kts 342°
2026-04-30 13:03 31.23879 -15.99879 34128 ft 416 kts 342°
2026-04-30 13:03 31.29586 -16.00944 34130 ft 417 kts 342°
2026-04-30 13:04 31.35341 -16.02015 34133 ft 418 kts 342°
2026-04-30 13:04 31.41084 -16.03088 34132 ft 418 kts 342°
2026-04-30 13:05 31.46820 -16.04163 34129 ft 418 kts 342°
2026-04-30 13:06 31.55448 -16.05783 34128 ft 418 kts 342°
2026-04-30 13:06 31.61194 -16.06860 34129 ft 418 kts 342°
2026-04-30 13:07 31.66911 -16.07933 34122 ft 417 kts 342°
2026-04-30 13:07 31.72643 -16.09010 34123 ft 417 kts 342°
2026-04-30 13:08 31.78372 -16.10093 34124 ft 417 kts 342°
2026-04-30 13:08 31.84102 -16.11176 34126 ft 417 kts 342°
2026-04-30 13:09 31.89850 -16.12263 34124 ft 418 kts 342°
2026-04-30 13:09 31.95588 -16.13350 34125 ft 418 kts 342°
2026-04-30 13:10 32.01317 -16.14432 34125 ft 418 kts 342°
2026-04-30 13:10 32.07065 -16.15507 34125 ft 418 kts 342°
2026-04-30 13:11 32.12802 -16.16597 34130 ft 418 kts 342°
2026-04-30 13:11 32.18557 -16.17697 34125 ft 419 kts 342°
2026-04-30 13:12 32.24314 -16.18792 34119 ft 419 kts 342°
2026-04-30 13:12 32.30079 -16.19889 34120 ft 419 kts 342°
2026-04-30 13:13 32.38708 -16.21532 34114 ft 419 kts 342°
2026-04-30 13:14 32.47307 -16.23170 34117 ft 419 kts 342°
2026-04-30 13:14 32.55952 -16.24831 34117 ft 419 kts 342°
2026-04-30 13:15 32.64583 -16.26490 34111 ft 419 kts 342°
2026-04-30 13:16 32.70341 -16.27595 34120 ft 420 kts 342°
2026-04-30 13:16 32.76129 -16.28701 34115 ft 420 kts 342°
2026-04-30 13:17 32.84779 -16.30367 34107 ft 420 kts 342°
2026-04-30 13:18 32.93396 -16.32036 34108 ft 420 kts 342°
2026-04-30 13:18 33.02058 -16.33707 34108 ft 421 kts 342°
2026-04-30 13:19 33.07867 -16.34822 34083 ft 422 kts 344°
2026-04-30 13:19 33.10810 -16.35003 34085 ft 436 kts 352°
2026-04-30 13:19 33.13861 -16.34866 34096 ft 438 kts 352°
2026-04-30 13:20 33.19920 -16.34570 34087 ft 436 kts 353°
2026-04-30 13:20 33.26003 -16.34273 34091 ft 435 kts 353°
2026-04-30 13:21 33.32030 -16.33988 34095 ft 435 kts 353°
2026-04-30 13:22 33.41110 -16.33575 34100 ft 436 kts 353°
2026-04-30 13:22 33.50206 -16.33146 34104 ft 437 kts 353°
2026-04-30 13:23 33.59322 -16.32719 34102 ft 437 kts 353°
2026-04-30 13:24 33.71469 -16.32153 34103 ft 438 kts 353°
2026-04-30 13:25 33.83655 -16.31576 34100 ft 438 kts 353°
2026-04-30 13:26 33.98858 -16.30852 34096 ft 439 kts 353°
2026-04-30 13:28 34.14127 -16.30121 34098 ft 439 kts 353°
2026-04-30 13:28 34.23317 -16.29688 34098 ft 441 kts 353°
2026-04-30 13:29 34.35590 -16.28414 34095 ft 458 kts
2026-04-30 13:31 34.50655 -16.21338 34097 ft 466 kts 13°
2026-04-30 13:32 34.65774 -16.14108 34099 ft 467 kts 13°
2026-04-30 13:33 34.77877 -16.08303 34090 ft 469 kts 13°
2026-04-30 13:34 34.86961 -16.03939 34097 ft 469 kts 13°
2026-04-30 13:35 34.99084 -15.98106 34088 ft 468 kts 13°
2026-04-30 13:36 35.11188 -15.92232 34093 ft 468 kts 13°
2026-04-30 13:36 35.20239 -15.87844 34113 ft 468 kts 13°
2026-04-30 13:37 35.29304 -15.83449 34087 ft 469 kts 13°
2026-04-30 13:38 35.38413 -15.79001 34089 ft 469 kts 13°
2026-04-30 13:39 35.50533 -15.73087 34097 ft 470 kts 13°
2026-04-30 13:40 35.59631 -15.68631 34085 ft 470 kts 13°
2026-04-30 13:40 35.65713 -15.65639 34088 ft 470 kts 13°
2026-04-30 13:41 35.71768 -15.62650 34094 ft 468 kts 13°
2026-04-30 13:41 35.77797 -15.59679 34093 ft 467 kts 13°
2026-04-30 13:42 35.83849 -15.56702 34086 ft 468 kts 13°
2026-04-30 13:42 35.91876 -15.52742 34087 ft 468 kts 13°
2026-04-30 13:43 35.98926 -15.49243 34107 ft 468 kts 13°
2026-04-30 13:43 36.03956 -15.46740 34091 ft 468 kts 13°
2026-04-30 13:44 36.09979 -15.43752 34088 ft 468 kts 13°
2026-04-30 13:44 36.16029 -15.40747 34086 ft 467 kts 13°
2026-04-30 13:45 36.22164 -15.38913 34085 ft 447 kts 355°
2026-04-30 13:45 36.25256 -15.38737 34096 ft 443 kts 353°
2026-04-30 13:46 36.31425 -15.38456 34081 ft 444 kts 353°
2026-04-30 13:46 36.37607 -15.38159 34084 ft 444 kts 353°
2026-04-30 13:47 36.43759 -15.37843 34082 ft 444 kts 353°
2026-04-30 13:47 36.49915 -15.37534 34083 ft 444 kts 353°
2026-04-30 13:48 36.56094 -15.37233 34084 ft 444 kts 353°
2026-04-30 13:48 36.62254 -15.36928 34081 ft 444 kts 353°
2026-04-30 13:49 36.68435 -15.36630 34081 ft 444 kts 353°
2026-04-30 13:49 36.74592 -15.36330 34076 ft 444 kts 353°
2026-04-30 13:50 36.80734 -15.36016 34079 ft 444 kts 353°
2026-04-30 13:50 36.90019 -15.35555 34079 ft 444 kts 353°
2026-04-30 13:51 36.96172 -15.35256 34109 ft 444 kts 353°
2026-04-30 13:51 37.02330 -15.34956 34079 ft 444 kts 353°
2026-04-30 13:52 37.08512 -15.34643 34076 ft 445 kts 353°
2026-04-30 13:52 37.14704 -15.34327 34076 ft 445 kts 353°
2026-04-30 13:53 37.20868 -15.34022 34079 ft 445 kts 353°
2026-04-30 13:53 37.27058 -15.33715 34075 ft 444 kts 353°
2026-04-30 13:54 37.33230 -15.33404 34074 ft 445 kts 353°
2026-04-30 13:54 37.39400 -15.33088 34073 ft 445 kts 353°
2026-04-30 13:55 37.45578 -15.32775 34070 ft 445 kts 353°
2026-04-30 13:55 37.51741 -15.32472 34071 ft 445 kts 353°
2026-04-30 13:56 37.57939 -15.32160 34071 ft 445 kts 353°
2026-04-30 13:56 37.64112 -15.31840 34070 ft 445 kts 353°
2026-04-30 13:57 37.70302 -15.31531 34070 ft 445 kts 353°
2026-04-30 13:57 37.76465 -15.31219 34072 ft 445 kts 353°
2026-04-30 13:58 37.85755 -15.30739 34059 ft 445 kts 353°
2026-04-30 13:59 37.91974 -15.30418 34068 ft 445 kts 353°
2026-04-30 13:59 37.98150 -15.30105 34065 ft 445 kts 353°
2026-04-30 14:00 38.04345 -15.29797 34223 ft 446 kts 353°
2026-04-30 14:00 38.10505 -15.29485 34651 ft 445 kts 353°
2026-04-30 14:00 38.13620 -15.29324 34871 ft 445 kts 353°
2026-04-30 14:01 38.16690 -15.29166 35054 ft 445 kts 353°
2026-04-30 14:01 38.19794 -15.29005 35238 ft 445 kts 353°
2026-04-30 14:01 38.22896 -15.28842 35412 ft 445 kts 354°
2026-04-30 14:01 38.25993 -15.28682 35581 ft 445 kts 354°
2026-04-30 14:02 38.29085 -15.28528 35743 ft 444 kts 354°
2026-04-30 14:02 38.32144 -15.28377 35893 ft 444 kts 354°
2026-04-30 14:02 38.35246 -15.28219 36050 ft 445 kts 354°
2026-04-30 14:02 38.38360 -15.28057 36057 ft 446 kts 354°
2026-04-30 14:03 38.44545 -15.27728 36057 ft 446 kts 354°
2026-04-30 14:03 38.50756 -15.27401 36054 ft 446 kts 354°
2026-04-30 14:04 38.56937 -15.27072 36054 ft 446 kts 354°
2026-04-30 14:04 38.63148 -15.26758 36056 ft 448 kts 354°
2026-04-30 14:05 38.69406 -15.26439 36056 ft 449 kts 354°
2026-04-30 14:05 38.75641 -15.26108 36053 ft 449 kts 354°
2026-04-30 14:06 38.85000 -15.25620 36053 ft 451 kts 354°
2026-04-30 14:07 38.94401 -15.25126 36051 ft 451 kts 354°
2026-04-30 14:08 39.03827 -15.24621 36066 ft 452 kts 354°
2026-04-30 14:08 39.13284 -15.24132 36048 ft 453 kts 354°
2026-04-30 14:09 39.19569 -15.23805 36051 ft 453 kts 354°
2026-04-30 14:10 39.29016 -15.23291 36047 ft 454 kts 355°
2026-04-30 14:10 39.35345 -15.22966 36050 ft 454 kts 355°
2026-04-30 14:11 39.41647 -15.22635 36049 ft 454 kts 355°
2026-04-30 14:11 39.47960 -15.22292 36068 ft 455 kts 356°
2026-04-30 14:12 39.54339 -15.21949 36046 ft 458 kts 356°
2026-04-30 14:12 39.60709 -15.21607 36049 ft 459 kts 356°
2026-04-30 14:13 39.67073 -15.21263 36049 ft 459 kts 356°
2026-04-30 14:13 39.73470 -15.20916 36043 ft 459 kts 356°
2026-04-30 14:14 39.79840 -15.20573 36046 ft 459 kts 356°
2026-04-30 14:14 39.86194 -15.20233 36043 ft 459 kts 356°
2026-04-30 14:15 39.92580 -15.19904 36043 ft 460 kts 357°
2026-04-30 14:15 39.98971 -15.19558 36041 ft 461 kts 357°
2026-04-30 14:16 40.05399 -15.19207 36044 ft 461 kts 357°
2026-04-30 14:16 40.11788 -15.18858 36043 ft 461 kts 357°
2026-04-30 14:17 40.18239 -15.18509 36043 ft 464 kts 358°
2026-04-30 14:17 40.24690 -15.18153 36043 ft 465 kts 359°
2026-04-30 14:18 40.31180 -15.17799 36045 ft 465 kts 358°
2026-04-30 14:18 40.40852 -15.17274 36044 ft 467 kts 359°
2026-04-30 14:19 40.50593 -15.16733 36041 ft 467 kts 359°
2026-04-30 14:20 40.57101 -15.16377 36047 ft 467 kts
2026-04-30 14:20 40.66877 -15.15832 36038 ft 469 kts
2026-04-30 14:21 40.73388 -15.15473 36038 ft 469 kts
2026-04-30 14:22 40.83189 -15.14934 36038 ft 471 kts
2026-04-30 14:22 40.93042 -15.14385 36038 ft 471 kts
2026-04-30 14:23 41.06126 -15.13672 36038 ft 473 kts
2026-04-30 14:24 41.15997 -15.13122 36038 ft 473 kts
2026-04-30 14:25 41.29158 -15.12359 36037 ft 475 kts
2026-04-30 14:26 41.39061 -15.11809 36037 ft 474 kts
2026-04-30 14:27 41.48953 -15.11252 36038 ft 476 kts
2026-04-30 14:27 41.55605 -15.10874 36037 ft 476 kts
2026-04-30 14:28 41.65524 -15.10312 36043 ft 477 kts
2026-04-30 14:28 41.72152 -15.09944 36044 ft 477 kts
2026-04-30 14:29 41.84305 -15.09233 36043 ft 477 kts
2026-04-30 14:31 42.01891 -15.07250 36051 ft 476 kts 19°
2026-04-30 14:31 42.11150 -15.02436 36051 ft 475 kts 22°
2026-04-30 14:32 42.19332 -14.98131 36052 ft 475 kts 22°
2026-04-30 14:33 42.26498 -14.94325 36052 ft 475 kts 23°
2026-04-30 14:33 42.34734 -14.89933 36054 ft 476 kts 22°
2026-04-30 14:34 42.40879 -14.86663 36056 ft 477 kts 22°
2026-04-30 14:34 42.47033 -14.83369 36058 ft 476 kts 22°
2026-04-30 14:35 42.56271 -14.78401 36060 ft 475 kts 22°
2026-04-30 14:36 42.62408 -14.75114 36059 ft 475 kts 22°
2026-04-30 14:36 42.68531 -14.71817 36064 ft 475 kts 22°
2026-04-30 14:37 42.74684 -14.68490 36064 ft 474 kts 22°
2026-04-30 14:37 42.80814 -14.65176 36065 ft 474 kts 22°
2026-04-30 14:38 42.86951 -14.61848 36065 ft 474 kts 22°
2026-04-30 14:38 42.93063 -14.58518 36064 ft 474 kts 22°
2026-04-30 14:39 42.99220 -14.55175 36071 ft 476 kts 22°
2026-04-30 14:39 43.05363 -14.51834 36068 ft 476 kts 22°
2026-04-30 14:40 43.14567 -14.46806 36064 ft 476 kts 22°
2026-04-30 14:40 43.20729 -14.43404 36070 ft 476 kts 22°
2026-04-30 14:41 43.26881 -14.40019 36070 ft 476 kts 22°
2026-04-30 14:41 43.33007 -14.36644 36072 ft 476 kts 21°
2026-04-30 14:42 43.39171 -14.33253 36067 ft 476 kts 21°
2026-04-30 14:42 43.45305 -14.29853 36068 ft 476 kts 22°
2026-04-30 14:43 43.51473 -14.26424 36154 ft 475 kts 22°
2026-04-30 14:43 43.54539 -14.24720 36419 ft 473 kts 21°
2026-04-30 14:43 43.57546 -14.23047 36673 ft 471 kts 21°
2026-04-30 14:44 43.60597 -14.21352 36917 ft 468 kts 21°
2026-04-30 14:44 43.63630 -14.19669 37046 ft 469 kts 21°
2026-04-30 14:44 43.69697 -14.16289 37072 ft 474 kts 21°
2026-04-30 14:45 43.75797 -14.12877 37075 ft 475 kts 21°
2026-04-30 14:45 43.81932 -14.09428 37071 ft 475 kts 21°
2026-04-30 14:46 43.88033 -14.05994 37071 ft 475 kts 21°
2026-04-30 14:46 43.94183 -14.02530 37073 ft 475 kts 21°
2026-04-30 14:47 44.00294 -13.99073 37074 ft 475 kts 21°
2026-04-30 14:47 44.06406 -13.95614 37073 ft 475 kts 21°
2026-04-30 14:48 44.12524 -13.92150 37074 ft 475 kts 21°
2026-04-30 14:48 44.18621 -13.88688 37088 ft 475 kts 21°
2026-04-30 14:49 44.24758 -13.85193 37069 ft 475 kts 21°
2026-04-30 14:49 44.30892 -13.81697 37071 ft 476 kts 21°
2026-04-30 14:50 44.40053 -13.76451 37079 ft 476 kts 20°
2026-04-30 14:51 44.49237 -13.71169 37080 ft 476 kts 21°
2026-04-30 14:52 44.58429 -13.65876 37081 ft 476 kts 20°
2026-04-30 14:52 44.67631 -13.60563 37074 ft 477 kts 20°
2026-04-30 14:53 44.76803 -13.55230 37068 ft 477 kts 20°
2026-04-30 14:54 44.89044 -13.48079 37077 ft 476 kts 20°
2026-04-30 14:55 44.98244 -13.42712 37078 ft 476 kts 19°
2026-04-30 14:56 45.10916 -13.37921 37062 ft 473 kts 10°
2026-04-30 14:57 45.20509 -13.34613 37082 ft 473 kts 10°
2026-04-30 14:58 45.33337 -13.30187 37057 ft 474 kts 10°
2026-04-30 14:58 45.42921 -13.26850 37057 ft 474 kts 10°
2026-04-30 15:00 45.58975 -13.21234 37040 ft 476 kts 10°
2026-04-30 15:01 45.71832 -13.16719 37049 ft 476 kts 10°
2026-04-30 15:01 45.81480 -13.13312 37066 ft 477 kts 10°
2026-04-30 15:02 45.87935 -13.11039 37047 ft 476 kts 11°
2026-04-30 15:03 46.04044 -13.05318 37023 ft 478 kts 11°
2026-04-30 15:04 46.20183 -12.99542 37027 ft 479 kts 11°
2026-04-30 15:06 46.36369 -12.93720 37039 ft 478 kts 11°
2026-04-30 15:07 46.49286 -12.89053 37030 ft 479 kts 11°
2026-04-30 15:08 46.62157 -12.84372 37029 ft 478 kts 11°
2026-04-30 15:09 46.78303 -12.78478 37025 ft 477 kts 11°
2026-04-30 15:10 46.91179 -12.73734 37033 ft 477 kts 12°
2026-04-30 15:11 47.10448 -12.66625 37035 ft 476 kts 12°
2026-04-30 15:13 47.26501 -12.60651 37017 ft 475 kts 12°
2026-04-30 15:14 47.48903 -12.52256 36996 ft 475 kts 13°
2026-04-30 15:17 47.77723 -12.41332 37004 ft 475 kts 13°
2026-04-30 15:19 48.03285 -12.31532 36987 ft 475 kts 14°